Imperial, NE

6:26 PM MDT on August 25, 2016 (GMT -0600)
Imperial Municipal

Weather History for KIML - December, 2010

Change the Weather History Date:

Thursday, December 30, 2010

  Actual Average Record
Temperature  
Mean Temperature 20 °F 28 °F  
Max Temperature 35 °F 40 °F 70 °F (1904)
Min Temperature 5 °F 15 °F -16 °F (1990)
Degree Days  
Heating Degree Days 45 38  
Month to date heating degree days 977 1100  
Cooling Degree Days 0 0  
Month to date cooling degree days 0 0  
Year to date cooling degree days 1172 963  
Moisture  
Dew Point 14 °F    
Average Humidity 72    
Maximum Humidity 85    
Minimum Humidity 59    
Precipitation  
Precipitation T in 0.02 in 0.33 in (1994)
Sea Level Pressure  
Sea Level Pressure 29.45 in    
Wind  
Wind Speed 18 mph (North)    
Max Wind Speed 29 mph    
Max Gust Speed 33 mph    
Visibility 6 miles    
Events Fog , Snow    
T = Trace of Precipitation, MM = Missing Value Source: NWS Daily Summary

Daily Weather History Graph

Daily Weather History Graph

Search for Another Location

Airport or City:

Trip Planner

Search our weather history database for the weather conditions in past years. The results will help you decide how hot, cold, wet, or windy it might be!

Date:

Astronomy

Dec. 30, 2010 Rise Set
Actual Time 7:09 AM MST 4:28 PM MST
Civil Twilight 6:38 AM MST 4:59 PM MST
Nautical Twilight 6:04 AM MST 5:33 PM MST
Astronomical Twilight 5:31 AM MST 6:06 PM MST
Moon 2:31 AM MST (12/30) 12:35 PM MST (12/30)
Length of Visible Light 10h 20m
Length of Day
9h 19m
Waning Crescent, 22% of the Moon is Illuminated
Dec 30
Waning Crescent
Jan 4
New
Jan 12
First Quarter
Jan 19
Full
Jan 26
Last Quarter

Hourly Weather History & Observations

Time (MST) Temp. Windchill Dew Point Humidity Pressure Visibility Wind Dir Wind Speed Gust Speed Precip Events Conditions
12:53 AM 30.0 °F 21.1 °F 25.0 °F 82% 29.14 in 10.0 mi NNW 10.4 mph - N/A   Clear
1:53 AM 30.9 °F 24.3 °F 25.0 °F 79% 29.18 in 10.0 mi NNW 6.9 mph - N/A   Clear
2:53 AM 30.9 °F 25.2 °F 25.0 °F 79% 29.18 in 10.0 mi North 5.8 mph - N/A   Clear
3:53 AM 35.1 °F 25.2 °F 24.1 °F 64% 29.18 in 10.0 mi North 16.1 mph - N/A   Overcast
4:53 AM 35.1 °F 24.1 °F 23.0 °F 61% 29.25 in 10.0 mi North 19.6 mph 25.3 mph N/A   Overcast
5:53 AM 32.0 °F 19.8 °F 23.0 °F 69% 29.31 in 10.0 mi North 20.7 mph 29.9 mph N/A   Overcast
6:25 AM 32.0 °F 20.5 °F 24.8 °F 75% 29.26 in 10.0 mi NNE 18.4 mph 25.3 mph N/A   Overcast
6:45 AM 30.2 °F 17.8 °F 24.8 °F 80% 29.26 in 10.0 mi NNE 19.6 mph 24.2 mph N/A   Overcast
6:53 AM 30.9 °F 18.7 °F 25.0 °F 79% 29.33 in 10.0 mi NNE 19.6 mph 26.5 mph N/A   Overcast
7:34 AM 28.4 °F 15.1 °F 24.8 °F 86% 29.28 in 2.0 mi North 20.7 mph 26.5 mph 0.00 in Snow Light Snow
7:51 AM 28.4 °F 16.6 °F 24.8 °F 86% 29.29 in 4.0 mi North 16.1 mph - 0.00 in Snow Light Snow
7:53 AM 28.0 °F 17.0 °F 24.1 °F 85% 29.37 in 5.0 mi North 13.8 mph - 0.00 in   Overcast
8:09 AM 28.4 °F 15.4 °F 23.0 °F 80% 29.30 in 10.0 mi North 19.6 mph - N/A   Overcast
8:53 AM 27.0 °F 13.2 °F 21.9 °F 81% 29.42 in 10.0 mi North 20.7 mph 26.5 mph N/A   Overcast
9:53 AM 26.1 °F 13.1 °F 19.0 °F 75% 29.46 in 10.0 mi North 17.3 mph 27.6 mph N/A   Overcast
10:53 AM 26.1 °F 11.3 °F 18.0 °F 71% 29.47 in 7.0 mi NNW 23.0 mph 29.9 mph 0.00 in Snow Light Snow
11:33 AM 24.8 °F 10.3 °F 15.8 °F 69% 29.40 in 1.8 mi NNW 20.7 mph 28.8 mph 0.00 in Snow Light Snow
11:45 AM 24.8 °F 9.3 °F 15.8 °F 69% 29.40 in 3.0 mi NNW 24.2 mph 28.8 mph 0.00 in Snow Light Snow
11:53 AM 24.1 °F 9.0 °F 16.0 °F 71% 29.48 in 5.0 mi North 21.9 mph 29.9 mph 0.00 in Snow Light Snow
12:53 PM 21.0 °F 5.0 °F 12.9 °F 71% 29.53 in 10.0 mi NNW 21.9 mph 25.3 mph 0.00 in   Overcast
1:53 PM 21.0 °F 4.6 °F 10.9 °F 65% 29.52 in 10.0 mi NNW 23.0 mph 29.9 mph N/A   Overcast
2:53 PM 19.9 °F 3.5 °F 10.9 °F 68% 29.54 in 10.0 mi North 21.9 mph 29.9 mph N/A   Overcast
3:53 PM 18.0 °F 0.9 °F 9.0 °F 68% 29.55 in 10.0 mi North 21.9 mph 31.1 mph N/A   Overcast
4:48 PM 17.6 °F 4.3 °F 8.6 °F 68% 29.55 in 10.0 mi North 12.7 mph - N/A   Overcast
4:53 PM 17.1 °F 2.0 °F 8.1 °F 68% 29.64 in 10.0 mi NNE 16.1 mph - N/A   Overcast
5:53 PM 15.1 °F -2.5 °F 7.0 °F 70% 29.64 in 10.0 mi NNE 20.7 mph - 0.00 in   Overcast
6:53 PM 14.0 °F -2.0 °F 3.2 °F 62% 29.58 in 10.0 mi NNE 16.1 mph - N/A   Overcast
7:34 PM 12.2 °F -4.8 °F 3.2 °F 67% 29.56 in 2.0 mi NNE 17.3 mph - 0.00 in Snow Light Snow
7:39 PM 12.2 °F -5.8 °F 5.0 °F 73% 29.57 in 1.8 mi North 19.6 mph - 0.00 in Snow Light Snow
7:49 PM 10.4 °F -7.2 °F 5.0 °F 79% 29.58 in 0.8 mi North 17.3 mph - 0.00 in Snow Light Snow
7:53 PM 10.9 °F -6.5 °F 6.1 °F 81% 29.70 in 0.5 mi North 17.3 mph - 0.00 in Snow Snow
8:09 PM 10.4 °F -7.2 °F 5.0 °F 79% 29.59 in 0.8 mi North 17.3 mph - 0.00 in Snow Light Snow
8:25 PM 8.6 °F -8.9 °F 5.0 °F 85% 29.60 in 0.2 mi North 16.1 mph - 0.00 in Fog , Snow Heavy Snow
8:37 PM 8.6 °F -10.0 °F 3.2 °F 79% 29.60 in 0.5 mi North 18.4 mph - 0.00 in   Haze
9:22 PM 8.6 °F -7.7 °F 3.2 °F 79% 29.59 in 1.0 mi North 13.8 mph - N/A   Haze
9:42 PM 6.8 °F -12.4 °F 1.4 °F 79% 29.59 in 0.8 mi NNE 18.4 mph - N/A   Haze
10:13 PM 6.8 °F -11.3 °F 1.4 °F 79% 29.58 in 0.8 mi North 16.1 mph - 0.00 in Snow Light Snow
11:53 PM 5.0 °F -14.7 °F -0.0 °F 80% 29.71 in 1.8 mi North 18.4 mph - N/A   Haze